Stations météo

Publicité
Avignon, France (7563): Température de l'air & dewpoint: 21.06.2019 12:00:00 - 27.06.2019 12:00:00 (CEST)Avignon, France (7563): Température de l'air 5cm: 21.06.2019 12:00:00 - 27.06.2019 12:00:00 (CEST)Avignon, France (7563): Vitesse du vent & gusts: 21.06.2019 12:00:00 - 27.06.2019 12:00:00 (CEST)Avignon, France (7563): Direction du vent: 21.06.2019 12:00:00 - 27.06.2019 12:00:00 (CEST)Avignon, France (7563): reduced air pressure: 21.06.2019 12:00:00 - 27.06.2019 12:00:00 (CEST)Avignon, France (7563): visibility: 21.06.2019 12:00:00 - 27.06.2019 12:00:00 (CEST)Avignon, France (7563): Quantités de précipitations: 21.06.2019 12:00:00 - 27.06.2019 12:00:00 (CEST)
Date & Time tt [°C] td [°C] tt 5cm [°C] ff [km/h] ff [knt] fx [km/h] fx [knt] dd ppp [hPa] vv [km] rr [mm]
27.06.2019 12:00:00 34,5 18,5 35,3 7 4 17 9 N 1020,3 60 0,0
27.06.2019 11:00:00 31,9 19,5 32,1 7 4 14 7 NNW 1020,5 20 0,0
27.06.2019 10:00:00 29,4 19,4 28,6 6 3 11 6 NNW 1020,9 20 0,0
27.06.2019 09:00:00 27,1 18,4 25,9 4 2 9 5 N 1021,1 20 0,0
27.06.2019 08:00:00 24,6 18,1 21,0 5 3 7 4 N 1021,2 19 0,0
27.06.2019 07:00:00 20,4 17,6 17,0 3 1 4 2 N 1021,2 20 0,0
27.06.2019 06:00:00 19,8 16,4 16,9 2 1 6 4 NNE 1021,3 27 0,0
27.06.2019 05:00:00 21,4 16,8 17,6 6 3 8 4 ENE 1021,2 35 0,0
27.06.2019 04:00:00 20,0 17,2 17,4 3 2 6 4 NE 1021,2 27 0,0
27.06.2019 03:00:00 20,6 16,8 17,6 4 2 8 5 SSE 1021,4 29 0,0
27.06.2019 02:00:00 20,8 16,8 18,2 5 3 6 4 SSE 1021,6 30 0,0
27.06.2019 01:00:00 21,4 17,0 18,0 5 3 8 4 ESE 1021,8 33 0,0
27.06.2019 00:00:00 22,8 16,8 19,9 5 3 9 5 ESE 1021,9 40 0,0
26.06.2019 23:00:00 25,1 17,3 21,6 6 3 8 4 E 1021,6 47 0,0
26.06.2019 22:00:00 28,4 17,0 25,0 5 3 15 8 WSW 1021,2 10 0,0
26.06.2019 21:00:00 30,7 16,3 29,7 9 5 24 13 W 1020,7 53 0,0
26.06.2019 20:00:00 33,0 17,2 33,7 17 9 29 16 SW 1020,3 38 0,0
26.06.2019 19:00:00 34,8 17,5 37,3 19 10 32 17 WSW 1019,9 58 0,0
26.06.2019 18:00:00 36,2 17,8 39,6 19 10 31 17 WSW 1019,8 60 0,0
26.06.2019 17:00:00 37,2 17,7 41,5 16 9 33 18 WSW 1019,9 39 0,0
26.06.2019 16:00:00 38,0 18,4 42,9 15 8 37 20 W 1020,2 44 0,0
26.06.2019 15:00:00 37,2 18,2 42,3 10 6 26 14 WSW 1020,6 19 0,0
26.06.2019 14:00:00 36,5 18,6 41,1 9 5 24 13 W 1021,1 20 0,0
26.06.2019 13:00:00 35,8 18,4 39,1 6 3 26 14 SSE 1021,7 51 0,0
26.06.2019 12:00:00 33,3 18,3 34,0 6 3 16 9 W 1022,1 19 0,0
26.06.2019 11:00:00 30,5 17,6 30,7 8 4 16 9 NW 1022,5 20 0,0
26.06.2019 10:00:00 28,6 18,1 27,0 4 2 10 5 NW 1022,8 19 0,0
26.06.2019 09:00:00 25,5 16,9 24,6 4 2 9 5 SE 1022,8 19 0,0
26.06.2019 08:00:00 22,3 16,8 19,3 2 1 4 2 WNW 1022,5 34 0,0
26.06.2019 07:00:00 18,3 16,1 14,0 0 0 5 3 N 1022,3 31 0,0
26.06.2019 06:00:00 17,1 15,3 13,5 3 2 5 3 ENE 1021,9 31 0,0
26.06.2019 05:00:00 17,8 16,1 14,3 0 0 5 3 N 1021,7 26 0,0
26.06.2019 04:00:00 17,8 15,6 14,6 2 1 6 3 E 1021,6 20 0,0
26.06.2019 03:00:00 18,9 15,4 15,3 5 3 6 4 SSE 1021,7 32 0,0
26.06.2019 02:00:00 18,5 15,2 15,4 3 1 6 3 ESE 1021,8 32 0,0
26.06.2019 01:00:00 19,7 15,3 16,4 3 2 6 3 E 1022,0 48 0,0
26.06.2019 00:00:00 21,4 15,0 17,7 4 2 7 4 E 1021,9 60 0,0
25.06.2019 23:00:00 22,7 15,3 18,6 4 2 11 6 S 1021,5 59 0,0
25.06.2019 22:00:00 23,9 15,1 20,5 11 6 12 7 S 1020,9 60 0,0
25.06.2019 21:00:00 28,8 15,3 27,4 4 2 16 8 S 1020,3 60 0,0
25.06.2019 20:00:00 30,1 15,4 29,8 8 5 28 15 S 1019,7 58 0,0
25.06.2019 19:00:00 32,1 14,7 33,8 14 8 46 25 SSW 1019,2 55 0,0
25.06.2019 18:00:00 33,8 15,7 36,0 27 14 40 21 SSW 1018,7 10 0,0
25.06.2019 17:00:00 36,1 15,3 39,2 26 14 38 21 SSW 1018,2 4,2 0,0
25.06.2019 16:00:00 36,2 16,4 40,3 22 12 33 18 S 1018,3 2,9 0,0
25.06.2019 15:00:00 36,0 16,2 40,4 13 7 28 15 S 1018,2 41 0,0
25.06.2019 14:00:00 35,4 16,2 40,5 19 10 35 19 WSW 1018,7 46 0,0
25.06.2019 13:00:00 34,9 17,6 38,0 15 8 29 15 SSW 1018,7 20 0,0
25.06.2019 12:00:00 32,8 16,6 33,3 9 5 23 12 S 1019,1 20 0,0
25.06.2019 11:00:00 29,5 16,0 29,4 5 3 15 8 NW 1019,3 60 0,0
25.06.2019 10:00:00 26,3 16,0 25,1 7 4 14 7 NW 1019,7 45 0,0
25.06.2019 09:00:00 23,5 15,3 21,6 5 3 10 6 N 1020,0 34 0,0
25.06.2019 08:00:00 19,8 15,6 17,0 5 3 6 4 NNW 1020,0 20 0,0
25.06.2019 07:00:00 16,4 14,6 11,2 2 1 6 3 N 1019,8 28 0,0
25.06.2019 06:00:00 14,3 12,3 10,9 0 0 6 3 N 1019,4 19 0,0
25.06.2019 05:00:00 15,4 13,2 11,3 2 1 8 5 E 1019,2 26 0,0
25.06.2019 04:00:00 15,6 12,9 13,0 5 3 9 5 SSE 1019,0 30 0,0
25.06.2019 03:00:00 16,2 13,9 12,8 3 2 6 4 N 1018,8 32 0,0
25.06.2019 02:00:00 17,4 14,1 13,3 5 3 6 4 SE 1018,6 37 0,0
25.06.2019 01:00:00 18,5 14,8 13,6 4 2 6 3 ESE 1018,4 44 0,0
25.06.2019 00:00:00 19,1 14,8 14,4 4 2 7 4 E 1018,4 46 0,0
24.06.2019 23:00:00 20,4 15,0 15,7 5 3 7 4 E 1018,2 54 0,0
24.06.2019 22:00:00 23,9 14,9 19,0 4 2 14 8 W 1017,7 1,6 0,0
24.06.2019 21:00:00 26,5 15,2 25,7 11 6 21 11 WSW 1017,1 60 0,0
24.06.2019 20:00:00 28,5 14,0 28,9 13 7 26 14 SW 1016,7 53 0,0
24.06.2019 19:00:00 29,8 14,4 30,8 15 8 32 17 SSW 1016,4 50 0,0
24.06.2019 18:00:00 31,7 13,5 35,3 19 10 33 18 SW 1016,3 32 0,0
24.06.2019 17:00:00 32,2 14,8 36,2 21 11 38 21 SW 1016,3 27 0,0
24.06.2019 16:00:00 33,1 15,1 37,1 24 13 42 23 SW 1016,3 30 0,0
24.06.2019 15:00:00 34,5 12,8 39,2 13 7 29 15 WSW 1016,0 20 0,0
24.06.2019 14:00:00 33,7 13,2 38,2 11 6 29 15 S 1016,4 60 0,0
24.06.2019 13:00:00 33,0 12,1 35,9 15 8 24 13 S 1016,7 60 0,0
24.06.2019 12:00:00 30,3 13,1 31,6 10 5 29 15 SSE 1017,1 60 0,0
24.06.2019 11:00:00 27,9 14,9 28,3 8 5 19 11 SSE 1017,6 60 0,0
24.06.2019 10:00:00 25,8 15,2 24,5 5 3 18 10 ESE 1017,7 55 0,0
24.06.2019 09:00:00 23,3 15,6 21,5 8 4 14 8 E 1018,0 43 0,0
24.06.2019 08:00:00 20,0 15,6 17,2 3 2 5 3 E 1017,9 33 0,2
24.06.2019 07:00:00 16,9 14,5 13,0 4 2 12 7 NE 1017,8 27 0,0
24.06.2019 06:00:00 15,5 14,0 12,6 3 2 8 5 NNW 1017,0 19 0,0
24.06.2019 05:00:00 15,0 13,2 12,4 3 2 16 9 NNW 1017,1 16 0,0
24.06.2019 04:00:00 15,8 13,6 12,3 3 2 7 4 S 1017,0 36 0,0
24.06.2019 03:00:00 16,5 15,0 12,5 7 4 8 5 ENE 1017,3 20 0,0
24.06.2019 02:00:00 16,3 14,7 12,4 0 0 6 3 N 1017,7 18 0,0
24.06.2019 01:00:00 17,4 15,0 13,4 5 3 6 4 ESE 1017,5 27 0,0
24.06.2019 00:00:00 18,4 15,6 14,7 5 3 9 5 E 1017,3 31 0,0
23.06.2019 23:00:00 20,3 16,5 17,3 6 3 13 7 E 1017,0 42 0,0
23.06.2019 22:00:00 22,6 16,8 21,3 9 5 22 12 SW 1016,2 50 0,0
23.06.2019 21:00:00 24,2 17,0 23,6 13 7 22 12 WSW 1015,6 41 0,0
23.06.2019 20:00:00 27,0 17,8 28,0 18 10 30 16 SW 1014,9 50 0,0
23.06.2019 19:00:00 30,7 14,3 32,7 16 9 23 13 SW 1014,0 50 0,0
23.06.2019 18:00:00 31,1 14,3 32,3 12 6 26 14 SW 1013,9 47 0,0
23.06.2019 17:00:00 30,7 16,7 32,4 16 9 25 13 SW 1014,1 55 0,0
23.06.2019 16:00:00 32,3 14,4 37,5 4 2 21 11 SW 1014,0 41 0,0
23.06.2019 15:00:00 31,1 13,8 36,1 8 4 20 11 NW 1014,4 60 0,0
23.06.2019 14:00:00 30,8 13,6 35,0 10 6 21 11 W 1014,7 48 0,0
23.06.2019 13:00:00 29,3 13,5 34,5 6 3 23 12 NW 1014,8 49 0,0
23.06.2019 12:00:00 28,7 14,5 29,7 5 3 14 8 WSW 1015,1 43 0,0
23.06.2019 11:00:00 26,0 14,5 27,1 5 3 14 8 W 1015,1 33 0,0
23.06.2019 10:00:00 24,2 14,9 23,8 4 2 14 8 NW 1014,9 42 0,0
23.06.2019 09:00:00 22,3 14,4 22,1 4 2 11 6 NNE 1014,8 56 0,0
23.06.2019 08:00:00 19,9 13,4 17,7 5 3 11 6 ENE 1014,8 57 0,0
23.06.2019 07:00:00 16,7 14,5 11,8 4 2 7 4 NNE 1014,8 42 0,0
23.06.2019 06:00:00 14,8 13,2 11,1 6 3 7 4 ENE 1014,6 48 0,0
23.06.2019 05:00:00 15,1 12,8 11,7 2 1 6 3 SSE 1014,6 57 0,0
23.06.2019 04:00:00 16,1 13,8 13,0 3 2 8 4 ESE 1014,5 59 0,0
23.06.2019 03:00:00 16,3 13,4 13,3 3 1 8 4 SE 1014,7 60 0,0
23.06.2019 02:00:00 17,2 13,7 14,6 4 2 6 3 SE 1014,5 60 0,0
23.06.2019 01:00:00 18,8 14,1 14,9 3 2 14 8 NE 1014,4 60 0,0
23.06.2019 00:00:00 21,3 14,5 15,2 9 5 14 7 WNW 1014,3 60 0,0
22.06.2019 23:00:00 20,4 14,1 16,8 4 2 8 5 S 1014,4 20 0,0
22.06.2019 22:00:00 23,6 14,0 20,0 8 5 15 8 NNW 1013,7 60 0,0
22.06.2019 21:00:00 26,4 13,5 25,4 14 7 22 12 NNW 1013,2 58 0,0
22.06.2019 20:00:00 27,5 13,1 27,5 11 6 27 15 NNW 1013,0 60 0,0
22.06.2019 19:00:00 29,0 14,0 29,9 10 6 22 12 W 1012,7 43 0,0
22.06.2019 18:00:00 30,0 11,5 32,6 13 7 30 16 NNW 1012,5 60 0,0
22.06.2019 17:00:00 29,9 11,9 34,5 14 8 29 15 NNW 1012,8 57 0,0
22.06.2019 16:00:00 29,6 12,9 34,5 16 8 29 16 NNW 1013,1 51 0,0
22.06.2019 15:00:00 29,5 12,4 33,4 13 7 32 18 N 1013,6 55 0,0
22.06.2019 14:00:00 28,3 13,4 32,6 12 7 29 16 NW 1014,1 54 0,0
22.06.2019 13:00:00 27,5 14,5 31,7 13 7 26 14 NW 1014,5 58 0,0
22.06.2019 12:00:00 26,5 15,2 27,7 16 8 31 17 WNW 1014,7 56 0,0
22.06.2019 11:00:00 25,3 14,7 25,9 14 7 30 16 NNW 1014,7 51 0,0
22.06.2019 10:00:00 23,4 14,1 23,6 17 9 29 16 N 1015,0 49 0,0
22.06.2019 09:00:00 22,2 14,3 21,5 18 10 31 17 N 1014,8 50 0,0
22.06.2019 08:00:00 20,4 15,4 18,8 12 7 22 12 NNW 1014,8 60 0,0
22.06.2019 07:00:00 18,8 15,3 17,2 9 5 16 9 NNW 1014,6 60 0,0
22.06.2019 06:00:00 18,8 15,3 16,6 7 4 18 10 WNW 1014,5 60 0,0
22.06.2019 05:00:00 19,4 15,1 17,9 10 5 20 11 NW 1014,6 60 0,0
22.06.2019 04:00:00 19,7 15,1 16,6 5 3 10 5 NW 1014,6 60 0,0
22.06.2019 03:00:00 19,5 14,7 17,6 6 3 18 10 NNW 1014,6 60 0,0
22.06.2019 02:00:00 20,7 15,3 17,9 10 5 19 11 NNW 1015,1 60 0,0
22.06.2019 01:00:00 20,7 14,8 18,5 8 4 17 9 NW 1015,2 54 0,0
22.06.2019 00:00:00 21,1 15,0 20,3 7 4 21 12 N 1015,1 60 0,0
21.06.2019 23:00:00 21,8 15,4 20,8 10 6 19 10 NW 1015,0 60 0,0
21.06.2019 22:00:00 23,3 15,9 22,0 11 6 18 10 WNW 1015,0 60 0,0
21.06.2019 21:00:00 23,6 18,9 23,5 8 4 18 10 WSW 1013,9 25 0,0
21.06.2019 20:00:00 24,2 19,3 24,4 9 5 29 16 SW 1013,7 20 0,0
21.06.2019 19:00:00 23,9 18,8 24,8 20 11 35 19 WSW 1013,7 21 0,0
21.06.2019 18:00:00 25,5 18,7 24,2 18 10 28 15 WSW 1013,8 30 0,0
21.06.2019 17:00:00 27,1 14,8 27,7 16 8 31 17 N 1013,2 51 0,0
21.06.2019 16:00:00 29,9 14,8 32,8 8 4 23 12 WSW 1013,5 49 0,0
21.06.2019 15:00:00 29,3 14,7 33,5 7 4 23 13 NW 1013,8 60 0,0
21.06.2019 14:00:00 29,1 14,5 34,0 8 5 30 16 WNW 1014,0 60 0,0
21.06.2019 13:00:00 27,2 15,2 30,0 7 4 16 9 NNW 1014,7 60 0,0
21.06.2019 12:00:00 26,4 15,4 28,7 6 3 17 9 NW 1015,0 41 0,0

tt = Température de l'air
td = dewpoint
tt 5cm = Température de l'air 5cm
ff = Vitesse du vent
fx = gusts
dd = Direction du vent
ppp = reduced air pressure
vv = visibility
rr = Quantités de précipitations

stations d'obs. à proximité